Location: Decatur Area Astronomy Club
(40.0275°N, 88.7810°W)
Time: 23:01:19
(UTC-06:00)

Daily predictions for brighter satellites

Satellite Brightness Start Highest point End
(mag) Time Altitude Azimuth Time Altitude Azimuth Time Altitude Azimuth
COSMOS 2441 4.4 17:24:38 10° SSE 17:29:23 58° ENE 17:34:08 10° N
CENTAUR R/B 4.0 17:25:04 10° WSW 17:30:34 32° NW 17:36:42 10° NNE
Cosmos 1328 3.8 17:26:46 10° S 17:30:42 88° W 17:34:40 10° N
MSX 3.8 17:26:56 10° SSE 17:32:37 75° ENE 17:38:22 10° N
Cosmos 2278 Rocket 2.3 17:27:36 10° NNW 17:33:20 90° SSW 17:39:00 10° SSE
MOS 1 4.4 17:27:41 10° SSE 17:33:21 89° W 17:39:03 10° NNW
Transit 2A Rocket 4.4 17:29:10 10° NNW 17:33:30 74° ENE 17:37:49 10° SE
Cosmos 1455 3.7 17:33:28 10° NNE 17:36:01 17° ENE 17:38:34 10° ESE
Timation 1 Rocket 4.5 17:33:39 10° NNW 17:39:35 56° ENE 17:45:28 10° SE
Abrixas 3.6 17:37:18 10° W 17:40:02 34° NNW 17:42:46 10° NE
SMAP 3.5 17:36:00 10° S 17:40:37 68° WSW 17:45:17 10° NNW
Cosmos 1634 Rocket 4.2 17:36:40 10° N 17:42:51 78° W 17:49:00 10° S
Cosmos 1125 Rocket 4.1 17:39:13 10° NNW 17:44:22 63° WSW 17:49:28 10° S
Cosmos 1703 3.7 17:40:54 10° SSE 17:44:31 38° E 17:48:08 10° NNE
Cosmos 1184 Rocket 4.3 17:43:34 10° SE 17:46:00 19° E 17:48:26 10° NE
CZ-4 R/B 2.9 17:43:48 10° S 17:47:27 40° W 17:51:10 10° NNW
SJ-6B 4.1 17:46:09 10° ESE 17:49:15 21° ENE 17:52:23 10° NNE
Iridium 4 Rocket 4.5 17:50:11 10° SE 17:53:07 18° E 17:55:58 10° NE
Cosmos 2151 3.5 17:49:42 10° SSW 17:53:51 63° W 17:58:03 10° N
Cosmos 1707 Rocket 3.9 17:50:03 10° N 17:54:08 40° ENE 17:58:13 10° SSE
YAOGAN 1 3.5 17:49:57 10° S 17:54:11 54° W 17:58:27 10° NNW
MONITOR-E 4.2 17:52:30 10° S 17:55:39 86° WSW 17:58:51 10° NNW
Cosmos 1300 3.6 17:52:24 10° NNW 17:56:09 53° W 17:59:52 10° S
Cosmos 2237 Rocket 3.0 17:50:47 10° SW 17:56:14 52° WNW 18:01:46 10° NNE
COSMO-SKYMED 1 2.5 17:52:10 10° NNE 17:56:30 68° E 18:00:49 10° S
Cosmos 2369 Rocket 3.9 17:57:44 10° NNE 18:00:16 13° NE 18:00:59 13° NE
Thor Agena Rocket 4.3 17:56:52 10° N 18:01:59 56° WNW 18:07:00 10° SSW
H-2A ROCKET BODY 4.5 17:25:25 10° WSW 18:02:16 47° S 18:09:04 10° ESE
Cosmos 1666 Rocket 3.8 17:59:52 10° SSE 18:04:01 46° E 18:08:13 10° NNE
Meteor 1-27 4.4 17:58:30 10° NNW 18:04:21 82° W 18:10:11 10° S
SL-16 R/B 2.2 17:58:59 10° SSW 18:04:37 80° ESE 18:10:18 10° NNE
Cosmos 1538 Rocket 4.0 18:00:27 10° S 18:05:41 65° ESE 18:11:00 10° NNE
Haruka 4.4 18:03:00 10° SW 18:06:46 38° SSE 18:16:07 11° E
Meteor 2-10 4.2 18:02:00 10° NNW 18:07:08 75° W 18:12:24 10° S
FREGAT/IRIS 3.7 18:05:10 10° SE 18:07:42 24° ENE 18:10:16 10° NNE
Cosmos 1484 Rocket 3.5 18:08:34 10° S 18:12:27 59° W 18:16:25 10° NNW
Resurs 01 Rocket 2.7 18:12:15 16° ESE 18:14:27 22° ENE 18:17:54 10° NNE
Cosmos 1340 Rocket 3.5 18:11:10 10° SSW 18:15:01 56° WNW 18:18:53 10° N
Cosmos 304 Rocket 4.2 18:11:32 10° SSW 18:16:17 63° WNW 18:21:05 10° NNE
Cosmos 2297 3.8 18:12:40 10° NNW 18:18:25 83° WSW 18:24:08 10° SSE
Cosmos 1680 Rocket 4.3 18:15:39 10° SSE 18:20:04 29° E 18:22:05 22° ENE
Meteor 1-28 Rocket 3.1 18:16:52 10° N 18:20:35 87° W 18:24:18 10° SSW
Lacrosse 4 Rocket 1.8 18:19:42 10° NNW 18:23:31 38° ENE 18:25:17 25° ESE
Tiangong 1 2.5 18:26:09 10° SSW 18:28:33 23° SSE 18:28:39 23° SE
Cosmos 1869 3.5 18:26:36 10° N 18:30:31 47° E 18:34:26 10° SSE
FENGYUN 3A 4.0 18:25:51 10° SE 18:30:46 39° ENE 18:35:44 10° N
METEOR-M 4.0 18:25:39 10° SSE 18:30:58 74° ENE 18:36:20 10° N
NOSS 3-1 (C) 4.3 18:27:50 10° SSE 18:32:21 24° ESE 18:32:52 24° ESE
Cosmos 1470 Rocket 3.8 18:32:58 10° SSE 18:37:05 42° E 18:38:13 35° NE
NOAA 12 4.1 18:34:17 10° SSE 18:39:31 86° WSW 18:44:49 10° NNW
Cosmos 773 Rocket 3.9 18:35:06 10° SSW 18:40:16 88° ESE 18:45:04 12° NNE
Cosmos 1943 4.2 18:38:07 10° SSE 18:41:55 26° ESE 18:41:55 26° ESE
USA 215 3.3 18:40:52 24° ESE 18:44:55 61° NE 18:51:21 10° NW
Cosmos 2242 Rocket 3.4 18:41:16 10° N 18:45:42 78° E 18:50:08 10° S
Lacrosse 5 4.0 18:44:43 10° NNW 18:46:55 13° NNE 18:47:19 12° NNE
Nadezhda 4 Rocket 4.2 18:41:25 10° SSW 18:47:40 76° W 18:54:00 10° N
ATLAS 5 CENTAUR R/B 4.0 18:44:24 10° N 18:47:22 16° NNE 18:47:22 16° NNE
Cosmos 1626 3.6 18:45:23 10° SSW 18:48:54 38° WNW 18:52:25 10° N
Cosmos 2026 Rocket 4.1 18:45:35 10° SSE 18:51:28 46° E 18:55:59 17° NNE
Sich 1 4.0 18:50:49 10° SSW 18:55:06 48° W 18:59:24 10° N
Cosmos 2112 Rocket 4.0 18:51:24 10° S 18:56:26 54° ESE 18:57:12 49° ENE
BREEZE-M DEB (TANK) 3.9 18:55:59 10° WNW 18:56:48 14° NW 18:56:48 14° NW
Lacrosse 5 rocket 4.4 18:56:25 10° W 18:58:14 13° WSW 19:00:07 10° SSW
Aureole 1 Rocket 4.1 18:54:10 10° SSW 18:59:35 72° WNW 19:06:48 10° NNE
ALOS 2.1 18:57:09 10° SSE 19:01:48 77° ENE 19:06:30 10° N
Coronas F rocket 4.0 19:02:50 10° SW 19:03:53 18° WSW 19:03:53 18° WSW
Cosmos 1633 Rocket 4.3 19:01:24 10° SSW 19:05:33 41° WNW 19:09:45 10° N
Cosmos 1943 Rocket 4.2 19:01:52 10° N 19:02:44 13° NNE 19:02:44 13° NNE
Meteor 2-20 4.4 19:01:17 10° S 19:07:14 57° E 19:09:17 39° NE
Cosmos 1603 3.6 19:03:50 10° SSW 19:09:26 83° WNW 19:12:04 33° NNE
Cosmos 1092 Rocket 4.2 19:03:48 10° SSW 19:10:06 71° W 19:16:28 10° N
FengYun 1-2 T 4.2 19:05:57 10° SSE 19:11:31 87° WSW 19:17:03 10° NNW
Cosmos 1455 4.2 19:08:27 10° NNW 19:11:45 28° W 19:15:03 10° SSW
Cosmos 292 Rocket 3.8 19:08:09 10° SSW 19:12:53 75° WNW 19:14:08 49° N
Spot 2 Rocket 3.7 19:23:34 10° S 19:28:34 66° WSW 19:33:35 10° NNW
USA 229 DEB 4.3 19:24:29 10° SW 19:31:10 53° NW 19:34:38 29° NNE
USA 229 4.3 19:24:34 10° SW 19:31:15 54° NW 19:34:41 29° NNE
NOSS 3-1 (A) 4.3 19:39:06 10° SSW 19:42:21 35° S 19:42:21 35° S
Cosmos 2369 Rocket 3.2 19:39:34 10° NNW 19:42:51 36° NNW 19:42:51 36° NNW
Resurs 01 Rocket 3.2 19:49:47 30° WSW 19:50:43 33° W 19:54:45 10° NNW
Lacrosse 4 Rocket 4.1 19:59:18 10° WNW 20:01:46 17° WSW 20:01:46 17° WSW
CZ-4C R/B 4.3 20:05:52 10° NNW 20:08:40 24° N 20:08:40 24° N
USA 215 4.3 20:28:14 39° SW 20:28:14 39° SW 20:34:07 10° WNW
